GLOBALSTAR M085

Last updated on Mon Sep 21 2026 00:03:12 GMT+0000 (Coordinated Universal Time)

1 37742U 11033D 26263.38734573 -.00000086 00000+0 99316-4 0 9996 2 37742 52.0114 263.4618 0000416 109.5729 36.8734 12.62265345701816
UTC large
Height (km)
Speed (km/s)
/
Latitude / Longitude
Inclination (degrees)
Orbital Period (minutes)
Azimuth
Elevation
Range (km)
Doppler Factor

Next 0 passes for location: London (51.5072 / 0.1276)

No passes found over London.
GLOBALSTAR M085